This demonstration page uses our WeatherBlox Daily Observations layout. Learn more.

Left ArrowRight Arrow

Hourly Observations for October 20, 2020

Temp ( °F °C ) Dew Point ( °F °C ) Humidity (%) Winds ( mph kmh ) Pressure ( in mb ) Visibility ( mi km ) Precip ( " mm )
12:17 am 00:17 Mostly Cloudy 42 5.6 32 0 68 68 S 9 15 30.14 1021 10 16 0.00 0.00
12:53 am 00:53 Cloudy 43 6.1 32 0 65 65 S 9 15 30.13 1020 10 16 0.00 0.00
1:53 am 01:53 Cloudy 43 6.1 32 0 65 65 SSE 7 11 30.10 1019 10 16 0.00 0.00
2:51 am 02:51 Partly Cloudy 43 6 32 0 66 66 SSE 5 7 30.11 1020 10 16 0.00 0.00
2:53 am 02:53 Partly Cloudy 41 5 32 0 70 70 SE 6 9 30.09 1019 10 16 0.00 0.00
3:18 am 03:18 Mostly Cloudy 41 5 32 0 70 70 SE 6 9 30.13 1020 10 16 0.00 0.00
3:53 am 03:53 Cloudy 42 5.6 32 0 68 68 SE 8 13 30.09 1019 10 16 0.00 0.00
4:53 am 04:53 Cloudy 43 6.1 32 0 65 65 SSE 10 17 30.05 1018 10 16 0.00 0.00
5:16 am 05:16 Cloudy 42 5.6 32 0 68 68 SSE 13 20 30.07 1018 10 16 0.00 0.00
5:32 am 05:32 Cloudy 42 5.6 32 0 68 68 SSE 13 20 30.07 1018 10 16 0.00 0.00
5:53 am 05:53 Cloudy 42 5.6 32 0 68 68 SSE 9 15 30.06 1018 10 16 0.00 0.00
6:53 am 06:53 Cloudy 41 5 33 0.6 73 73 S 10 17 30.04 1017 10 16 0.00 0.00
7:53 am 07:53 Cloudy 41 5 33 0.6 73 73 S 10 17 30.02 1017 10 16 0.00 0.00
8:53 am 08:53 Cloudy 41 5 34 1.1 76 76 S 9 15 30.04 1017 10 16 0.00 0.00
9:53 am 09:53 Cloudy 43 6.1 35 1.7 74 74 S 8 13 30.04 1017 10 16 0.00 0.00
10:53 am 10:53 Cloudy 46 7.8 36 2.2 68 68 S 13 20 30.01 1016 10 16 0.00 0.00
11:53 am 11:53 Cloudy 48 8.9 37 2.8 66 66 S 12 19 30.00 1016 10 16 0.00 0.00
12:18 pm 12:18 Cloudy 48 8.9 37 2.8 66 66 SSW 9 15 30.01 1016 10 16 0.00 0.00
12:53 pm 12:53 Cloudy 48 8.9 38 3.3 68 68 SSW 7 11 29.98 1015 10 16 0.00 0.00
1:53 pm 13:53 Mostly Cloudy 52 11.1 39 3.9 61 61 SSW 14 22 29.95 1014 10 16 0.00 0.00
2:21 pm 14:21 Mostly Cloudy 51 10.6 39 3.9 64 64 SSW 12 19 29.92 1013 10 16 0.00 0.00
2:53 pm 14:53 Cloudy 54 12.2 40 4.4 59 59 SSW 8 13 29.93 1014 10 16 0.00 0.00
3:53 pm 15:53 Mostly Cloudy 56 13.3 40 4.4 55 55 WSW 8 13 29.94 1014 10 16 0.00 0.00
4:53 pm 16:53 Sunny 54 12.2 41 5 62 62 W 9 15 29.95 1014 10 16 0.00 0.00
5:53 pm 17:53 Sunny 56 13.3 40 4.4 55 55 W 7 11 29.97 1015 10 16 0.00 0.00
6:53 pm 18:53 Clear 53 11.7 40 4.4 61 61 Calm 29.98 1015 10 16 0.00 0.00
7:53 pm 19:53 Clear 48 8.9 38 3.3 68 68 Calm 30.04 1017 10 16 0.00 0.00
8:53 pm 20:53 Clear 47 8.3 37 2.8 69 69 Calm 30.06 1018 10 16 0.00 0.00
9:53 pm 21:53 Clear 45 7.2 35 1.7 68 68 N 6 9 30.09 1019 10 16 0.00 0.00
10:53 pm 22:53 Clear 45 7.2 36 2.2 71 71 WSW 3 6 30.12 1020 10 16 0.00 0.00
11:53 pm 23:53 Clear 44 6.7 36 2.2 73 73 WNW 3 6 30.15 1021 10 16 0.00 0.00

Powered by AerisWeather